Liberta — V2CM3 — position and weather

sailwx.info

Track history (hours):
 
Tides and Currents Weather Stations Pressure Air Temp Water Temp Dewpoint Dewpoint Depression Visibility Wind Speed Wind Dir Waves Ship Positions

Liberta

Last reported at 2016-Feb-17 01:32 UTC. Time now 2016-May-06 13:05 UTC.
Position N 35°46' E 017°09'.
Warning: this ship's position is months out of date.

Length 138 m; draft 7.8 m.

Type: Cargo ship. MMSI: 305043000.

Date/timePositionNaut miles runAvg speedWind from/ knotsBaromVisibWave heightAir tempDewpointWater temp
2016-Feb-17 01:32N 35°46' E 017°09'1111.1
2016-Feb-17 00:33N 35°49' E 016°56'1311.0
2016-Feb-16 23:24N 35°54' E 016°41'7911.6
2016-Feb-16 16:33N 36°19' E 015°08'1212.4
2016-Feb-16 15:33N 36°23' E 014°54'1312.2
2016-Feb-16 14:30N 36°26' E 014°39'1212.2
2016-Feb-16 13:33N 36°30' E 014°25'1212.1
2016-Feb-16 12:33N 36°34' E 014°11'1212.2
2016-Feb-16 11:34N 36°38' E 013°56'8912.2
2016-Feb-16 04:18N 37°05' E 012°11'  
2016-Feb-08 14:33N 35°57' W 005°08'1110.8
2016-Feb-08 13:34N 36°02' W 005°19'7 5.0
2016-Feb-08 12:11N 36°09' W 005°22'0 0.0
2016-Feb-08 11:14N 36°09' W 005°22'0 0.0
2016-Feb-08 10:26N 36°09' W 005°22'0 0.0
2016-Feb-08 09:23N 36°09' W 005°22'0 0.0
2016-Feb-08 07:20N 36°09' W 005°22'2 3.0
2016-Feb-08 06:33N 36°06' W 005°22'3 3.4
2016-Feb-08 05:34N 36°03' W 005°21'9 9.2
2016-Feb-08 04:33N 35°57' W 005°30'  
Track history (hours):
 
Tides and Currents Weather Stations Pressure Air Temp Water Temp Dewpoint Dewpoint Depression Visibility Wind Speed Wind Dir Waves Ship Positions

Liberta

Last reported at 2016-Feb-17 01:32 UTC. Time now 2016-May-06 13:05 UTC.
Position N 35°46' E 017°09'.
Warning: this ship's position is months out of date.

Length 138 m; draft 7.8 m.

Type: Cargo ship. MMSI: 305043000.

Date/timePositionNaut miles runAvg speedWind from/ knotsBaromVisibWave heightAir tempDewpointWater temp
2016-Feb-17 01:32N 35°46' E 017°09'1111.1
2016-Feb-17 00:33N 35°49' E 016°56'1311.0
2016-Feb-16 23:24N 35°54' E 016°41'7911.6
2016-Feb-16 16:33N 36°19' E 015°08'1212.4
2016-Feb-16 15:33N 36°23' E 014°54'1312.2
2016-Feb-16 14:30N 36°26' E 014°39'1212.2
2016-Feb-16 13:33N 36°30' E 014°25'1212.1
2016-Feb-16 12:33N 36°34' E 014°11'1212.2
2016-Feb-16 11:34N 36°38' E 013°56'8912.2
2016-Feb-16 04:18N 37°05' E 012°11'  
2016-Feb-08 14:33N 35°57' W 005°08'1110.8
2016-Feb-08 13:34N 36°02' W 005°19'7 5.0
2016-Feb-08 12:11N 36°09' W 005°22'0 0.0
2016-Feb-08 11:14N 36°09' W 005°22'0 0.0
2016-Feb-08 10:26N 36°09' W 005°22'0 0.0
2016-Feb-08 09:23N 36°09' W 005°22'0 0.0
2016-Feb-08 07:20N 36°09' W 005°22'2 3.0
2016-Feb-08 06:33N 36°06' W 005°22'3 3.4
2016-Feb-08 05:34N 36°03' W 005°21'9 9.2
2016-Feb-08 04:33N 35°57' W 005°30'  

Dump ship's entire track history